Location: Allendale
(34.4298°N, 82.7582°W)
Time: 09:54:05
(UTC+00:00)

N. Korean satellite - Visible Passes

Search period start: 20 May 2022 00:00
Search period end: 30 May 2022 00:00
Orbit: 439 x 478 km, 97.3° (Epoch: 19 May)

Date Brightness Start Highest point End Pass type
(mag) Time Alt. Az. Time Alt. Az. Time Alt. Az.
20 May 9.4 09:51:22 10° NE 09:53:35 16° E 09:55:47 10° SE visible
23 May 9.5 09:47:17 10° ENE 09:49:07 14° E 09:50:56 10° SE visible
26 May 9.7 09:43:00 10° ENE 09:44:15 12° E 09:45:29 10° ESE visible
